Location: *
(51.5180°N, 3.5121°W)
Time: 13:44:21
(UTC+00:00)

Daily predictions for brighter satellites

Satellite Brightness Start Highest point End
(mag) Time Altitude Azimuth Time Altitude Azimuth Time Altitude Azimuth
NOSS 3-4 (A) 4.0 16:35:47 10° SSW 16:41:27 45° ESE 16:47:29 10° NE
NOSS 3-4 (C) 4.0 16:35:54 10° SSW 16:41:34 44° ESE 16:47:35 10° NE
USA 267 3.7 16:35:44 10° SE 16:42:15 72° SSW 16:48:49 10° WNW
Cosmos 2322 Rocket 2.5 16:38:10 10° SW 16:43:46 70° WNW 16:49:26 10° NNE
Meteor 1-14 Rocket 4.3 16:38:03 10° N 16:44:03 77° ENE 16:49:54 10° SSE
CZ-4B R/B 1.6 16:41:53 10° NNE 16:45:25 86° WNW 16:48:55 10° SSW
Cosmos 44 Rocket 4.1 16:40:54 10° NW 16:45:31 56° SW 16:50:07 10° SSE
Cosmos 1844 3.8 16:40:16 10° NNW 16:46:02 88° WSW 16:51:40 10° SSE
NOSS 8 (H) 4.3 16:43:36 10° SW 16:46:41 71° NW 16:49:55 10° NE
H-2A R/B 3.9 16:45:08 10° N 16:48:35 26° WNW 16:52:01 10° WSW
SL-16 R/B 2.8 16:44:15 10° SW 16:49:50 57° NW 16:55:27 10° NNE
Meteor 1-26 Rocket 4.3 16:44:31 10° S 16:50:20 74° E 16:56:01 10° NNE
YAOGAN 1 4.4 16:48:49 10° ENE 16:50:23 12° NE 16:51:58 10° NNE
NOSS 2-2 (C) 3.5 16:50:03 10° SW 16:53:44 68° NW 16:58:09 10° NE
Feng Yun 1-1 Rocket 4.3 16:50:12 10° SE 16:55:24 50° ENE 17:00:37 10° N
Cosmos 2219 Rocket 2.9 16:52:14 10° S 16:57:13 34° ESE 17:02:15 10° NE
BREEZE-M R/B 3.8 16:50:25 10° WSW 16:57:32 57° SSE 17:01:05 10° E
Cosmos 1844 Rocket 3.4 16:55:03 10° NW 17:00:31 59° WSW 17:06:00 10° SSE
Cosmos 1733 Rocket 3.6 16:56:48 10° N 17:00:50 35° ENE 17:04:51 10° SE
CORIOLIS 4.4 16:56:02 10° SE 17:01:13 47° ENE 17:06:26 10° N
Cosmos 494 Rocket 4.0 16:56:56 10° SSW 17:02:10 70° ESE 17:07:25 10° NNE
Cosmos 1536 4.0 16:59:44 10° NNE 17:02:53 21° ENE 17:05:59 10° ESE
Tsikada Rocket 4.4 16:57:39 10° SSW 17:04:04 71° WNW 17:10:28 10° N
Cosmos 1602 3.7 17:00:51 10° N 17:04:45 89° W 17:08:38 10° S
PSLV R/B 4.4 17:00:49 10° NNE 17:04:49 43° E 17:08:46 10° S
Cosmos 1500 3.9 17:02:59 10° N 17:06:22 30° ENE 17:09:44 10° SE
Cosmos 1269 Rocket 4.1 17:02:20 10° S 17:07:35 65° ESE 17:12:51 10° NNE
Cosmos 1869 Rocket 3.8 17:03:27 10° NNW 17:07:52 74° W 17:12:17 10° S
Cosmos 1340 2.8 17:04:15 10° NNW 17:08:03 82° WSW 17:11:50 10° S
SMAP 3.1 17:03:33 10° SSE 17:08:06 56° ENE 17:12:41 10° N
Cosmos 2237 4.3 17:05:53 10° SSW 17:11:38 84° WNW 17:17:25 10° NNE
CZ-4 R/B 2.7 17:09:31 10° ESE 17:12:10 18° ENE 17:14:48 10° NNE
Cosmos 1943 Rocket 3.8 17:10:27 10° N 17:13:48 16° NNE 17:16:12 12° NE
ALOS 3.7 17:11:16 10° S 17:15:42 43° W 17:20:10 10° NNW
NOSS 2-2 (E) 4.2 17:12:35 10° WSW 17:16:16 44° NNW 17:20:30 11° NE
H-2A R/B 2.7 17:12:43 10° SSE 17:16:20 54° ENE 17:19:57 10° N
Cosmos 304 Rocket 3.8 17:13:39 10° NNW 17:18:30 85° WSW 17:23:19 10° SSE
ATLAS 2AS CENTAUR R/B 3.1 17:11:01 10° SW 17:19:03 90° NNE 17:26:45 11° NE
Lacrosse 5 rocket 3.0 17:16:21 10° S 17:19:31 20° SE 17:21:46 14° E
COSMOS 2428 3.0 17:17:11 10° S 17:22:38 50° ESE 17:27:49 12° NE
Cosmos 1302 Rocket 4.2 17:18:12 10° NNW 17:23:30 77° WSW 17:28:44 10° SSE
Meteor 1-5 Rocket 4.1 17:17:54 10° N 17:23:32 67° ENE 17:28:56 10° SSE
CSL-04 Rocket 4.5 17:19:35 10° ESE 17:23:56 27° ENE 17:28:18 10° N
YAOGAN 6 3.6 17:21:35 10° ESE 17:24:27 24° ENE 17:27:23 10° N
Cosmos 292 Rocket 4.4 17:23:52 10° N 17:28:18 33° NE 17:32:41 10° ESE
SL-4 R/B 2.8 17:25:04 10° SW 17:28:32 37° SSE 17:31:03 18° E
IRS-1C Rocket 4.2 17:25:25 10° SSE 17:30:42 85° WSW 17:36:01 10° NNW
Okean O Rocket 3.4 17:27:57 10° SSW 17:31:57 35° W 17:35:59 10° NNW
Cosmos 2251 Rocket 4.2 17:27:58 10° SSE 17:32:42 34° ESE 17:36:13 16° NE
SeaSat 1 3.8 17:31:15 17° ENE 17:32:43 19° NE 17:36:10 10° N
Cosmos 921 Rocket 4.2 17:32:45 10° N 17:36:01 21° NE 17:36:26 21° ENE
ATLAS 5 CENTAUR R/B 3.0 17:35:15 10° SSE 17:35:55 12° SE 17:35:55 12° SE
Cosmos 2242 Rocket 4.4 17:33:28 10° SSE 17:37:25 30° E 17:40:14 16° NE
Cosmos 1782 3.6 17:34:04 10° SSW 17:37:58 51° WNW 17:41:53 10° N
COSMOS 2455 3.8 17:33:41 10° WSW 17:39:20 40° NW 17:44:47 11° NNE
FengYun 1-2 T 4.4 17:34:57 10° SE 17:40:12 49° ENE 17:45:29 10° N
Cosmos 1862 Rocket 3.8 17:36:06 10° SSE 17:40:14 45° E 17:44:16 11° NNE
Cosmos 2333 4.2 17:35:53 10° SSW 17:41:37 88° WNW 17:47:03 12° NNE
Cosmos 1346 Rocket 4.3 17:38:24 10° NNW 17:42:06 39° W 17:45:49 10° SSW
Cosmos 1315 Rocket 3.3 17:39:06 10° SSW 17:43:03 62° WNW 17:47:05 10° N
Genesis I 4.0 17:40:22 10° NNW 17:43:55 31° NE 17:45:01 26° ENE
Okean-O 2.5 17:40:00 10° SSE 17:44:25 71° ENE 17:48:51 10° N
Cosmos 2322 3.9 17:41:27 10° SW 17:47:10 73° WNW 17:52:31 12° NNE
USA 215 3.3 17:44:09 19° ENE 17:49:07 79° NNW 17:55:40 10° WSW
Meteor 2-6 Rocket 4.1 17:44:06 10° SSW 17:49:30 88° WNW 17:54:58 10° NNE
Cosmos 1666 3.0 17:47:39 10° N 17:51:13 38° ENE 17:54:43 10° SE
Cosmos 2278 Rocket 2.2 17:48:26 10° NNW 17:54:09 85° WSW 17:59:49 10° SSE
Envisat 2.9 17:51:03 10° SSE 17:56:08 80° ENE 18:01:15 10° NNW
Cosmos 1707 Rocket 4.1 17:51:53 10° SSW 17:56:17 61° WNW 18:00:46 10° N
STARLINK-67 2.4 17:54:05 10° WSW 17:56:52 84° SSE 17:57:14 62° E
Cosmos 1867 4.3 17:53:31 10° NW 17:58:31 34° NNE 18:00:20 28° ENE
Meteor 1-10 Rocket 4.3 17:55:35 10° SSW 18:01:07 82° WNW 18:06:47 10° NNE
BREEZE-M DEB (TANK) 3.4 17:58:19 10° WSW 18:02:55 37° S 18:04:16 24° SE
Cosmos 2360 Rocket 3.3 17:58:17 10° WSW 18:03:35 39° NW 18:08:43 11° NNE
Cosmos 2369 Rocket 3.4 18:04:38 10° NNW 18:09:03 23° NE 18:09:07 23° NE
Cosmos 1992 Rocket 4.1 18:04:00 10° NNW 18:09:15 79° WSW 18:14:28 10° SSE
Shenzhou-11 Module 4.3 18:08:50 10° SSW 18:10:21 14° S 18:10:38 14° S
SL-16 R/B 3.6 18:07:10 10° SSE 18:09:56 19° ESE 18:09:56 19° ESE
Cosmos 1980 Rocket 4.4 18:08:47 10° NW 18:11:33 14° NNW 18:14:20 10° N
Cosmos 1908 Rocket 3.4 18:07:38 10° N 18:12:04 70° ENE 18:16:26 10° SSE
Meteor 1-11 Rocket 4.3 18:06:58 10° NNW 18:12:53 66° W 18:18:47 10° S
COSMO-SKYMED 1 2.7 18:12:09 36° NE 18:13:33 51° E 18:17:47 10° S
Nadezhda 4 Rocket 3.9 18:07:43 10° S 18:14:04 84° E 18:20:26 10° N
Cosmos 2333 Rocket 2.4 18:08:29 10° SW 18:14:14 74° WNW 18:18:31 19° NNE
STARLINK-46 3.7 18:12:05 10° SW 18:14:06 34° S 18:14:06 34° S
Cosmos 1553 Rocket 4.4 18:09:06 10° N 18:15:02 39° ENE 18:20:58 10° SE
ISS -2.3 18:12:23 10° W 18:15:28 34° SSW 18:17:00 22° SSE
RESURS DK-1 2.3 18:11:26 10° SSW 18:15:34 84° WNW 18:17:10 37° NNE
NOAA 15 4.5 18:13:08 10° SSE 18:18:22 68° ENE 18:23:35 10° NNW
NOSS 3-1 (C) 4.5 18:13:51 10° NW 18:20:14 39° NNE 18:22:54 30° ENE
Cosmos 1812 3.1 18:18:05 10° SSW 18:21:55 65° WNW 18:24:35 19° N
Meteor 1-27 Rocket 3.7 18:16:13 10° SSW 18:21:57 88° WNW 18:27:52 10° NNE
Cosmos 2237 Rocket 2.2 18:18:03 10° SSW 18:23:39 60° ESE 18:25:48 36° NE
YAOGAN 1 2.4 18:21:25 10° SSE 18:25:43 71° ENE 18:30:03 10° N
BREEZE-M DEB (TANK) 3.5 18:22:01 10° W 18:26:25 30° SW 18:27:30 23° S
USA 229 DEB 4.4 18:20:46 10° NW 18:27:21 40° NNE 18:29:29 33° ENE
USA 229 4.4 18:20:52 10° NW 18:27:27 40° NNE 18:29:33 33° ENE
Cosmos 2322 Rocket 4.2 18:24:46 10° W 18:28:53 20° NNW 18:32:56 10° NNE
NOSS 3-4 (A) 4.0 18:26:16 10° WSW 18:32:16 55° NW 18:35:44 27° NNE
NOSS 3-4 (C) 4.0 18:26:22 10° WSW 18:32:22 55° NW 18:35:50 27° NNE
SL-16 R/B 4.3 18:31:23 10° WNW 18:35:13 18° NNW 18:38:56 10° NNE
Cosmos 2026 Rocket 3.9 18:30:51 10° S 18:36:47 60° E 18:40:53 21° NNE
SKYMED 3 4.4 18:36:34 48° NNE 18:37:46 86° ESE 18:42:07 10° SSW
Ariane Rocket 3.6 18:40:38 38° NNE 18:40:38 38° NNE 18:44:08 10° N
Cosmos 1536 4.0 18:35:41 10° NNW 18:39:31 43° W 18:43:19 10° SSW
Cosmos 2219 Rocket 2.9 18:35:32 10° SW 18:40:59 51° NW 18:44:27 22° NNE
Okean 1-7 3.9 18:39:32 10° S 18:42:13 36° SSE 18:42:13 36° SSE
Cosmos 1417 Rocket 4.4 18:39:53 10° N 18:45:57 58° ENE 18:48:46 32° SE
CZ-4 R/B 1.9 18:43:00 10° S 18:46:52 56° W 18:50:41 10° NNW
Exosat Rocket 3.8 18:45:05 10° SW 18:50:15 63° WNW 18:52:16 35° N
Cosmos 1441 Rocket 4.5 18:49:23 10° NNW 18:51:38 33° NNW 18:51:38 33° NNW
Cosmos 1980 3.6 18:48:18 10° SSW 18:53:57 83° WNW 18:55:38 48° NNE
Cosmos 2297 3.6 18:48:47 10° NNW 18:54:33 88° WSW 18:56:47 39° SSE
YAOGAN 6 4.4 18:54:40 10° SSW 18:57:51 31° W 19:01:05 10° NNW
Lacrosse 5 rocket 1.9 18:54:04 10° WSW 18:57:26 55° SW 18:57:26 55° SW
Cosmos 1943 Rocket 2.9 18:53:38 10° NNW 18:57:45 39° NNE 18:57:45 39° NNE
Cosmos 1627 Rocket 4.3 18:53:43 10° S 18:59:50 90° ENE 19:05:05 15° N
SKYMED 2 4.1 19:00:50 47° NNW 19:01:44 57° WNW 19:05:59 10° SSW
CSL-04 Rocket 4.1 18:58:43 10° S 19:03:56 60° WSW 19:09:11 10° NNW
Cosmos 1782 Rocket 4.0 19:01:58 10° NNW 19:06:17 60° W 19:06:20 60° W
COSMOS 2428 3.9 19:01:50 10° WSW 19:07:06 38° NW 19:09:50 24° N
SL-4 R/B 3.1 19:04:02 10° WSW 19:06:39 42° WSW 19:06:39 42° WSW
SeaSat 1 3.1 19:11:02 44° NNW 19:11:02 44° NNW 19:14:29 10° NNW
ATLAS 2AS CENTAUR R/B 3.8 19:03:23 10° W 19:10:58 43° NNW 19:14:11 30° NNE
Cosmos 921 Rocket 4.2 19:10:28 10° NNW 19:13:18 38° NW 19:13:18 38° NW
Cosmos 2251 Rocket 4.5 19:09:49 10° SW 19:14:54 44° WNW 19:16:43 33° N
NOSS 0 Rocket 4.4 19:13:26 10° SW 19:19:34 57° NW 19:21:31 41° N
Cosmos 1703 Rocket 4.5 19:16:12 10° SSW 19:19:58 47° WSW 19:19:58 47° WSW
H-2A R/B 4.5 19:27:37 11° N 19:27:37 11° N 19:27:44 10° N
USA 215 3.5 19:31:30 55° N 19:31:51 56° N 19:38:13 10° WNW
Cosmos 1867 4.4 19:37:06 10° NW 19:41:01 47° WNW 19:41:01 47° WNW
S3M 4.3 19:39:37 10° NNW 19:44:58 61° NW 19:44:58 61° NW
Cosmos 2360 Rocket 4.5 19:46:13 10° NW 19:49:17 14° NNW 19:50:29 14° N
Cosmos 2369 Rocket 3.7 19:48:17 10° NNW 19:50:56 29° NNW 19:50:56 29° NNW
SL-16 R/B 3.6 19:49:08 10° SW 19:51:52 30° SW 19:51:52 30° SW
Cosmos 2333 Rocket 4.2 19:55:08 10° W 19:59:31 22° NW 20:00:32 21° NNW
Cosmos 2237 Rocket 3.7 20:02:57 10° WSW 20:07:40 33° NW 20:07:40 33° NW
Cosmos 2344 4.1 19:59:10 10° NW 20:08:25 82° NE 20:09:11 78° E
NOSS 3-1 (C) 4.3 20:04:48 10° NW 20:10:19 58° NW 20:10:19 58° NW
USA 229 DEB 4.4 20:11:55 10° NW 20:16:56 50° NW 20:16:56 50° NW
USA 229 4.5 20:12:01 10° NW 20:17:01 50° NW 20:17:01 50° NW
Cosmos 2219 Rocket 4.5 20:22:46 10° WNW 20:26:11 17° NNW 20:26:11 17° NNW
Cosmos 1943 Rocket 4.5 20:37:34 10° NW 20:39:17 19° NW 20:39:17 19° NW
ATLAS 2AS CENTAUR R/B 4.4 20:56:47 10° WNW 21:01:37 29° NNW 21:01:37 29° NNW
